User: anonymous   Login
Location: Unspecified
(0.0000°N, 0.0000°E)
Time: 15:44:42
(UTC+00:00)
Language:

Radarsat - Orbit

View from above orbital plane
View from above orbital plane
View from above satellite
View from above satellite

Ground track
Ground track

The orbit data is extracted from the following two-line orbital elements,

1 23710U 95059A   18169.01345785  .00000001  00000-0  17027-4 0  9991
2 23710  98.5750 178.0060 0001306  85.5648 274.5684 14.30701285180788
Epoch (UTC): 18 June 2018 00:19:22
Eccentricity: 0.0001306
inclination: 98.5750°
perigee height: 788 km
apogee height: 790 km
right ascension of ascending node: 178.0060°
argument of perigee: 85.5648°
revolutions per day: 14.30701285
mean anomaly at epoch: 274.5684°
orbit number at epoch: 18078

The dashed part of the orbit path shows where the satellite is in the earth's shadow,  

DLR